{"data":{"norad_id":66383,"intl_designator":"2025-257D","name":"STARLINK-35690","alt_names":[],"object_type":"PAYLOAD","status":"ACTIVE","operator":null,"country":"US","launch_date":"2025-11-09","launch_site_code":"AFETR","launch_vehicle":null,"mission":null,"orbit_class":"UNKNOWN","rcs_meters":null,"size_class":null,"mass_kg":null,"dimensions":null,"purposes":["comms"],"wikipedia_slug":null,"has_3d_model":false,"image_url":null,"decayed_at":null,"tle_current":{"epoch":"2026-09-20T11:49:27.469920Z","epoch_age_seconds":94093,"freshness":"FRESH","line1":"1 66383U 25257D   26263.49267905  .00016759  00000+0  50590-3 0  9997","line2":"2 66383  53.1675  27.5875 0000674  62.1781 297.9290 15.34407447 49629","mean_motion":15.34407447,"eccentricity":6.74e-5,"inclination_deg":53.1675,"raan_deg":27.5875,"arg_perigee_deg":62.1781,"mean_anomaly_deg":297.929,"bstar":0.0005059,"rev_number":4962,"period_min":93.84730260632,"perigee_km":462.22003510288,"apogee_km":463.1421773836,"semimajor_km":6840.8181062432,"source":"CELESTRAK","updated_at":"2026-09-21T09:00:35.885519Z"}}}